Location: Shenandoah County Park
(38.9356°N, 78.4524°W)
Time: 13:26:16
(UTC-05:00)

Vanguard 1 - All Passes

Search period start: 30 January 2023 00:00
Search period end: 09 February 2023 00:00
Orbit: 649 x 3831 km, 34.2° (Epoch: 29 January)

Date Brightness Start Highest point End Pass type
(mag) Time Alt. Az. Time Alt. Az. Time Alt. Az.
30 Jan - 04:48:36 10° SSW 04:55:16 35° SE 05:06:28 10° E visible
30 Jan - 07:06:32 10° WSW 07:16:13 70° SSE 07:34:28 10° E daylight
30 Jan - 09:26:39 10° W 09:40:10 70° S 10:02:31 10° ESE daylight
30 Jan - 11:48:38 10° W 12:05:24 48° SSW 12:27:02 10° SE daylight
30 Jan - 14:16:05 10° W 14:29:36 20° SW 14:43:41 10° S daylight
31 Jan - 05:08:28 10° SW 05:15:28 44° SSE 05:27:54 10° E visible
31 Jan - 07:26:59 10° WSW 07:37:01 73° S 07:55:50 10° E daylight
31 Jan - 09:47:19 10° W 10:01:10 65° SSW 10:23:28 10° ESE daylight
31 Jan - 12:09:49 10° W 12:26:10 40° SW 12:46:41 10° SSE daylight
31 Jan - 14:41:00 10° WSW 14:50:02 14° SW 14:59:17 10° SSW daylight
01 Feb - 03:13:22 10° SSE 03:16:47 14° SE 03:21:05 10° ESE visible
01 Feb - 05:28:31 10° SW 05:35:49 53° SSE 05:49:14 10° E visible
01 Feb - 07:47:30 10° W 07:57:52 73° S 08:17:11 10° E daylight
01 Feb - 10:08:02 10° W 10:22:07 59° SSW 10:44:10 10° SE daylight
01 Feb - 12:31:18 10° W 12:46:53 33° SW 13:05:52 10° SSE daylight
02 Feb - 03:32:03 10° S 03:36:42 22° SE 03:43:22 10° E visible
02 Feb - 05:48:45 10° WSW 05:56:18 61° SSE 06:10:33 10° E visible
02 Feb - 08:08:03 10° W 08:18:45 71° S 08:38:27 10° ESE daylight
02 Feb - 10:28:50 10° W 10:43:02 52° SSW 11:04:34 10° SE daylight
02 Feb - 12:53:17 10° W 13:07:33 26° SW 13:24:21 10° S daylight
03 Feb - 03:51:28 10° SSW 03:56:44 30° SE 04:05:00 10° E visible
03 Feb - 06:09:05 10° WSW 06:16:54 67° SSE 06:31:50 10° E visible
03 Feb - 08:28:37 10° W 08:39:39 68° S 08:59:35 10° ESE daylight
03 Feb - 10:49:45 10° W 11:03:55 45° SSW 11:24:38 10° SE daylight
03 Feb - 13:16:12 10° W 13:28:12 19° SW 13:41:47 10° S daylight
04 Feb - 04:11:16 10° SW 04:16:55 39° SSE 04:26:20 10° E visible
04 Feb - 06:29:30 10° WSW 06:37:36 70° S 06:53:08 10° E visible
04 Feb - 08:49:13 10° W 09:00:32 62° SSW 09:20:32 10° ESE daylight
04 Feb - 11:10:53 10° W 11:24:45 37° SSW 11:44:16 10° SSE daylight
04 Feb - 13:41:25 10° WSW 13:48:51 13° SW 13:56:50 10° SSW daylight
05 Feb - 02:17:15 10° SSE 02:18:30 11° SE 02:19:50 10° ESE visible
05 Feb - 04:31:19 10° SW 04:37:14 48° SSE 04:47:34 10° E visible
05 Feb - 06:49:58 10° W 06:58:21 70° S 07:14:24 10° ESE visible
05 Feb - 09:09:52 10° W 09:21:25 55° SSW 09:41:14 10° SE daylight
05 Feb - 11:32:20 10° W 11:45:34 30° SW 12:03:21 10° SSE daylight
06 Feb - 02:35:05 10° S 02:38:29 17° SE 02:42:50 10° E visible
06 Feb - 04:51:32 10° WSW 04:57:40 56° SSE 05:08:44 10° E visible
06 Feb - 07:10:28 10° W 07:19:07 68° S 07:35:36 10° ESE daylight
06 Feb - 09:30:38 10° W 09:42:17 48° SSW 10:01:38 10° SE daylight
06 Feb - 11:54:20 10° W 12:06:22 23° SW 12:21:43 10° S daylight
07 Feb - 02:54:23 10° SSW 02:58:35 25° SE 03:04:27 10° E visible
07 Feb - 05:11:52 10° WSW 05:18:13 63° S 05:29:54 10° E visible
07 Feb - 07:31:00 10° W 07:39:54 63° S 07:56:41 10° ESE daylight
07 Feb - 09:51:30 10° W 10:03:10 41° SSW 10:21:40 10° SE daylight
07 Feb - 12:17:26 10° WSW 12:27:10 17° SW 12:38:49 10° S daylight
08 Feb - 03:14:09 10° SW 03:18:46 33° SSE 03:25:43 10° E visible
08 Feb - 05:32:15 10° WSW 05:38:49 66° S 05:51:04 10° E visible
08 Feb - 07:51:34 10° W 08:00:42 57° SSW 08:17:34 10° ESE daylight
08 Feb - 10:12:38 10° W 10:24:02 33° SSW 10:41:14 10° SSE daylight
08 Feb - 12:44:12 10° SW 12:48:02 11° SW 12:52:06 10° SSW daylight
